Theta_e
316 315 316 315 315 316 316 316 317 316 315 314 314 313 310 308 307 306 306 306 306 308 308 306 307 307 308 309 308 307 307 310 314 314 313 316 315 315 319 317 314 312 311 312 312 313 313 313 313 313 315 318 318 319 316 319 329 331 333 333 325 325 321 318 321 321 321 321 320 318 318 319 316 316 314 313 317 316 317 318 321 330 331 329 329 324 330 335
315 315 315 315 315 315 315 315 316 316 314 314 314 313 311 309 307 306 306 306 306 307 308 307 307 307 308 309 308 306 307 311 317 318 314 316 319 317 318 316 312 311 312 312 313 313 314 314 311 313 319 319 318 319 319 318 323 330 330 327 332 336 321 315 320 319 319 319 320 318 318 319 317 316 315 314 315 315 318 316 324 344 337 328 330 329 333 335
314 315 315 314 314 315 315 315 315 315 314 314 314 313 312 310 308 307 306 306 306 307 307 307 307 307 308 308 308 307 309 311 315 318 314 316 320 316 313 313 311 311 312 312 314 314 314 315 311 314 319 318 319 320 322 320 319 330 332 324 333 337 321 315 318 317 318 318 319 318 316 316 316 315 314 315 316 315 320 318 320 341 342 333 331 330 333 333
314 314 314 314 314 314 315 315 315 314 314 314 313 312 312 310 309 308 307 306 305 306 307 307 307 308 309 309 308 309 312 311 313 319 317 316 318 313 311 312 312 312 312 312 315 315 315 314 310 314 317 316 319 319 321 322 316 322 331 331 330 325 320 317 317 319 318 315 318 318 315 315 315 314 314 316 317 315 318 320 318 330 340 334 330 330 331 331
315 314 312 313 314 314 314 315 314 314 313 313 312 312 311 310 309 308 307 306 305 306 306 307 308 308 308 308 308 311 313 308 311 319 319 317 315 312 311 313 313 313 313 312 314 314 313 312 310 314 317 316 318 318 319 320 319 317 320 329 327 319 318 318 318 320 316 315 317 317 316 315 315 314 316 316 316 319 317 318 317 323 334 333 330 329 329 329
315 314 313 312 313 314 314 314 314 313 313 312 312 311 310 309 308 307 306 306 305 305 306 307 308 307 308 307 307 313 314 308 313 318 317 315 312 312 313 313 313 313 314 313 313 313 313 313 312 315 316 316 318 319 318 315 319 322 316 319 321 318 319 318 318 320 317 317 317 317 316 315 316 315 317 316 315 322 319 318 315 316 328 331 329 328 329 329
315 314 313 312 313 314 313 313 313 313 313 312 312 311 309 308 308 307 306 306 305 305 305 306 307 307 308 308 308 315 317 313 315 317 314 312 311 313 313 313 313 313 314 313 313 315 315 314 314 317 316 316 315 316 317 315 318 324 318 316 317 316 319 317 317 319 319 319 317 316 315 315 318 316 315 315 317 322 317 315 310 310 324 329 328 328 328 328
314 314 313 312 313 313 313 313 312 312 313 313 312 311 309 308 308 307 306 305 305 305 305 306 307 307 308 310 312 316 316 316 317 315 313 312 312 313 313 313 313 313 314 314 314 315 315 314 314 315 315 315 315 315 315 315 317 319 317 317 317 317 318 317 317 320 319 318 316 315 315 317 318 315 315 317 320 322 316 313 311 314 325 329 329 330 327 326
314 314 313 312 312 312 312 312 312 312 313 313 312 311 310 309 308 307 306 305 305 305 305 306 307 307 310 312 314 314 314 317 317 313 312 312 312 313 313 314 313 314 315 315 314 313 313 315 315 314 315 314 314 315 315 315 316 315 316 318 318 316 316 315 316 318 318 317 316 315 317 318 317 314 316 321 321 320 318 317 317 322 331 330 330 329 325 325
314 314 313 312 312 312 311 311 311 312 312 312 312 312 311 310 308 307 306 306 305 305 305 306 307 308 310 312 312 311 315 318 315 312 312 312 312 313 316 315 314 316 316 314 314 313 314 316 316 314 314 314 314 315 314 314 316 317 319 318 318 317 315 315 316 316 317 317 316 317 318 318 317 315 318 322 319 316 319 319 316 324 334 328 328 328 324 324
314 313 313 313 312 312 311 310 310 311 311 311 312 312 311 309 308 307 306 306 305 305 305 307 308 308 310 312 311 311 316 318 314 312 312 312 313 314 316 315 315 317 316 315 314 314 315 315 314 313 313 314 316 316 315 315 316 318 320 317 317 318 315 315 316 315 316 316 316 318 317 317 316 316 319 318 316 315 320 321 316 322 327 322 325 326 322 322
314 313 313 312 312 312 311 310 309 310 310 310 312 313 312 309 308 307 307 306 306 306 306 307 308 310 311 310 312 313 316 317 313 312 312 312 314 314 315 315 315 317 316 315 316 315 315 315 314 314 313 314 316 317 315 316 316 317 320 319 318 321 320 316 316 316 316 315 317 317 314 315 317 318 318 316 316 316 317 320 319 319 319 317 320 322 321 320
313 313 312 312 312 311 311 310 309 310 310 310 312 312 312 309 308 307 306 306 306 306 307 308 308 313 311 308 313 316 316 315 312 312 312 313 314 314 315 315 315 316 316 316 315 314 315 316 316 316 316 317 317 313 315 317 316 317 319 321 321 321 322 316 315 317 316 316 317 314 312 318 320 317 316 315 315 315 315 318 318 318 318 316 316 318 319 317
313 313 312 312 311 310 310 309 309 310 310 311 312 312 312 309 308 308 307 307 307 307 309 309 310 313 311 308 314 317 315 313 312 312 313 314 314 315 315 315 315 315 315 315 313 314 316 315 315 316 315 317 316 313 318 319 318 318 314 322 324 317 321 321 316 317 315 315 316 312 313 320 322 318 315 315 315 316 317 318 317 317 316 315 315 315 316 315
313 313 312 311 311 310 310 309 309 310 310 311 312 312 311 309 309 308 308 308 308 309 309 310 311 312 310 310 314 316 314 312 313 313 314 315 314 314 314 314 314 314 313 313 314 315 315 315 316 318 315 315 316 316 323 321 323 324 314 322 324 314 325 328 317 318 317 315 315 313 315 320 320 319 317 315 315 315 318 320 318 317 316 315 315 314 314 313
313 313 312 311 310 310 310 309 310 311 311 311 311 311 309 309 310 309 310 309 309 310 310 312 313 311 309 312 314 314 313 313 314 313 315 315 315 315 314 314 313 313 314 314 316 315 315 317 317 317 317 317 319 321 325 323 327 329 318 320 324 316 322 325 316 318 319 316 316 313 316 320 318 317 318 316 315 315 318 321 319 318 318 317 316 314 314 313
313 313 312 311 310 310 310 309 310 311 311 311 310 310 310 311 311 310 311 311 311 311 311 314 313 309 308 310 314 315 314 315 314 313 316 316 316 315 313 315 313 313 315 315 317 315 313 317 315 314 318 318 321 323 320 318 321 324 318 319 324 320 319 321 320 318 317 317 317 315 316 320 319 319 320 319 316 317 318 321 322 321 319 319 317 315 314 313
313 312 311 310 310 310 309 309 309 310 310 310 310 311 312 312 312 312 312 312 312 310 310 312 310 309 309 309 315 317 315 315 314 314 316 316 315 315 315 315 313 313 317 317 316 315 316 319 319 320 319 316 319 322 321 320 320 321 319 319 320 318 318 322 321 317 316 317 317 317 317 320 321 318 319 318 314 316 319 320 321 320 320 320 317 316 314 313
312 312 310 309 310 310 310 310 311 311 310 309 311 312 313 313 313 313 313 312 311 308 309 310 308 311 312 312 316 317 315 314 313 314 316 316 315 315 316 314 316 318 318 319 315 315 322 322 319 319 317 317 318 321 326 328 325 324 325 328 326 320 318 321 319 316 316 317 318 320 318 318 319 316 317 317 313 314 318 319 317 317 317 316 315 315 315 315
312 312 311 309 310 311 311 311 311 311 310 311 312 311 312 313 314 313 313 314 312 308 310 311 311 315 316 316 318 316 315 314 313 315 315 315 315 316 315 315 323 324 320 323 317 316 326 323 318 320 316 317 318 321 325 323 322 324 324 328 327 322 319 318 318 317 315 315 319 319 318 318 318 316 316 315 312 312 315 317 317 316 315 314 315 315 315 316
312 312 311 310 310 311 311 311 311 311 311 312 313 312 312 313 313 312 313 314 311 308 312 314 313 317 317 316 316 314 315 315 314 315 315 315 316 315 315 317 323 322 319 324 321 319 327 321 317 324 322 317 317 319 319 316 319 324 324 325 322 319 319 316 317 319 315 314 318 319 318 317 316 315 314 312 311 313 314 315 315 315 314 314 315 315 315 315
312 312 311 310 310 311 311 311 312 312 312 313 314 316 315 312 310 311 311 310 308 308 313 314 314 317 315 313 314 314 317 318 316 316 316 315 316 315 317 319 321 320 317 320 321 322 325 321 321 328 324 316 315 317 318 320 326 328 325 322 319 318 317 316 318 319 316 315 319 323 320 316 315 315 314 313 312 313 313 312 314 314 314 315 315 315 314 314
311 310 310 311 311 311 311 312 312 312 312 314 315 316 314 311 311 311 310 309 308 311 313 314 319 320 315 313 315 314 315 317 317 318 316 315 317 317 318 319 320 320 317 318 322 320 319 321 324 323 318 315 315 317 319 321 326 329 325 320 320 322 318 316 318 318 315 314 316 322 320 317 317 318 318 315 311 312 314 314 314 314 315 316 316 315 315 316
311 310 311 311 311 311 312 312 313 311 312 314 315 315 311 310 312 311 312 311 311 313 312 312 317 320 316 313 314 314 314 316 318 316 314 315 316 316 317 318 320 320 317 319 321 320 320 318 317 318 319 320 318 316 320 319 317 323 334 332 323 323 321 317 319 319 316 316 319 320 318 321 325 327 329 320 312 314 316 315 316 317 317 315 316 316 315 315
311 312 312 312 312 312 312 313 313 311 312 314 315 314 311 310 310 310 313 312 311 312 310 309 313 316 316 313 314 316 315 316 318 316 314 315 315 315 316 316 318 320 318 318 318 319 320 315 314 318 323 325 321 319 323 325 317 316 329 332 323 326 327 321 323 323 318 317 318 316 315 323 330 329 329 322 314 315 315 314 318 321 319 315 315 315 313 314
313 313 313 312 313 313 312 314 313 311 313 313 313 314 311 311 310 311 315 314 312 312 309 309 311 313 314 314 317 317 314 315 315 314 314 314 314 315 315 314 317 319 317 316 318 319 317 316 318 323 326 326 324 322 321 324 321 313 318 324 327 334 329 321 321 318 319 317 314 317 318 318 320 318 319 318 317 320 317 318 321 317 315 315 313 314 314 315
314 314 313 313 314 313 313 316 315 312 314 312 311 312 310 310 310 310 314 314 313 312 309 309 308 310 314 314 315 314 314 316 314 313 314 314 313 312 315 316 315 316 316 317 319 318 316 319 320 325 331 327 321 320 318 322 324 314 318 326 331 332 326 328 327 318 321 319 318 328 325 316 317 314 314 317 317 321 322 322 321 315 313 315 314 314 316 319
315 314 314 314 314 313 315 317 314 313 314 312 311 311 311 310 308 311 316 312 312 311 309 308 307 311 313 311 313 313 313 316 317 315 313 313 313 312 317 318 317 317 315 317 321 317 317 322 322 325 331 326 322 323 319 325 327 319 321 327 329 330 332 339 338 328 324 317 320 331 320 314 325 319 314 318 316 318 323 322 319 316 316 318 319 318 319 324
316 316 316 315 314 314 316 317 314 314 316 314 312 311 310 309 308 313 316 310 310 311 309 308 308 313 314 311 312 314 314 316 318 317 313 313 312 312 315 316 317 319 315 318 325 320 316 319 321 325 325 323 323 322 321 328 326 320 321 324 326 329 333 336 336 327 320 316 322 329 317 313 323 321 317 315 314 321 325 321 320 321 323 327 333 333 333 336
317 317 317 316 316 315 317 318 316 317 317 314 313 311 309 310 311 311 309 309 312 312 308 309 310 314 315 312 312 313 316 318 317 316 315 315 315 313 313 313 316 322 321 324 327 322 316 314 316 319 319 322 322 319 320 324 319 318 325 326 325 329 332 337 336 324 313 318 326 326 319 313 315 324 324 314 313 320 320 321 323 325 328 331 336 340 342 344
317 318 316 316 317 317 318 318 317 319 317 313 312 310 310 316 316 310 307 311 317 313 308 309 311 314 314 312 313 314 317 318 315 315 316 316 316 316 314 313 317 323 322 324 324 321 318 315 316 316 316 320 323 319 319 323 322 322 331 329 321 325 329 332 334 323 313 322 326 321 319 315 313 324 326 318 317 317 316 320 322 322 326 328 330 337 342 344
316 317 317 317 318 318 318 318 318 319 315 311 312 312 312 315 313 310 310 313 316 315 312 311 312 314 313 313 314 316 319 319 315 315 317 318 317 316 316 318 320 319 317 321 322 319 318 319 317 316 315 318 325 324 320 326 329 323 324 325 318 320 321 321 326 323 319 320 319 318 319 316 315 319 319 319 320 319 320 321 321 321 321 323 330 340 343 341
315 316 317 318 318 318 318 318 319 318 313 311 313 315 318 315 310 311 314 314 314 314 314 313 313 313 313 313 315 316 318 318 316 315 316 318 318 316 317 320 320 319 320 323 322 319 320 323 319 315 317 317 321 324 320 323 325 318 318 321 320 320 318 317 321 319 318 319 316 317 318 318 321 318 315 317 315 317 322 321 324 327 324 327 337 344 344 340
314 314 316 317 317 318 318 318 319 316 312 312 313 312 316 313 310 312 312 313 316 315 315 315 313 312 312 313 313 315 316 315 315 315 316 317 317 317 317 315 315 324 327 321 320 320 318 322 321 318 319 318 317 320 323 324 321 319 319 316 318 325 323 321 322 319 320 322 318 314 317 324 324 314 313 318 314 314 317 319 323 326 329 334 334 335 341 341
314 314 315 316 316 318 318 316 316 314 311 313 312 310 310 309 311 313 311 315 319 317 314 313 312 312 312 313 313 314 317 317 315 315 316 317 317 317 317 314 314 324 325 316 317 319 315 318 323 319 317 319 318 318 322 323 319 319 317 313 315 322 323 319 318 321 322 320 318 316 321 327 321 313 314 318 317 314 312 314 318 318 323 329 327 328 336 340
313 314 315 315 315 316 316 315 315 313 313 313 311 309 309 312 317 317 314 318 320 315 312 311 312 313 311 313 315 312 314 319 317 315 316 316 315 316 316 315 314 316 317 317 319 318 316 318 319 317 316 318 318 317 318 320 320 318 316 318 318 318 323 320 314 316 316 313 317 318 321 325 317 314 317 314 316 318 313 315 319 316 314 316 320 326 333 339
311 312 313 314 315 316 315 315 314 313 315 314 309 308 311 316 321 323 322 320 315 312 313 312 312 313 311 313 316 313 314 319 317 315 317 315 314 316 316 315 314 313 313 316 318 319 321 321 316 316 318 316 314 317 319 318 319 320 320 322 317 313 321 324 317 321 319 315 320 318 317 321 317 316 318 313 312 315 313 316 321 320 316 315 319 323 326 333
309 310 311 313 315 315 315 315 313 314 318 315 310 312 318 320 318 321 323 318 313 312 315 316 315 313 312 313 315 313 314 318 316 316 317 314 315 316 315 315 315 313 312 313 313 316 320 319 315 315 318 317 315 317 320 317 315 320 322 320 318 319 323 320 316 321 320 316 322 321 315 316 315 315 316 312 313 315 314 317 321 322 320 318 319 322 328 333
308 311 313 312 313 315 316 314 312 315 318 315 310 313 319 320 316 318 319 318 319 316 314 318 318 314 313 314 314 314 314 315 315 316 316 314 315 315 313 314 315 313 312 312 313 315 316 314 315 314 315 317 316 316 320 320 315 316 316 314 319 324 325 322 317 318 318 317 320 321 316 316 316 316 315 313 316 318 316 316 318 320 321 319 317 322 331 337
307 312 314 311 311 314 314 313 313 315 316 314 312 313 316 317 317 317 317 317 320 318 318 324 321 315 316 316 314 314 314 316 315 315 315 313 313 314 312 312 314 314 312 310 312 315 314 311 313 315 313 315 319 318 319 320 318 317 318 316 318 319 319 322 319 317 319 321 321 318 315 319 319 315 314 315 317 319 318 317 318 319 319 319 319 322 330 336
306 311 312 310 312 313 313 314 313 313 313 313 313 313 314 317 318 318 317 317 317 318 323 328 323 318 319 317 315 315 315 317 316 314 315 313 312 314 313 313 315 315 312 310 312 316 314 312 318 320 316 318 323 321 317 318 318 317 317 317 318 318 318 319 318 316 317 319 322 318 313 317 318 313 313 317 317 319 322 321 319 317 316 316 318 323 330 331
305 308 310 311 313 312 313 314 311 308 310 311 313 313 314 316 318 319 318 317 318 318 320 322 323 324 322 317 317 318 316 317 317 316 317 315 313 315 315 314 315 314 313 312 313 315 317 319 323 324 320 321 322 318 315 318 318 316 316 317 316 317 318 318 319 320 317 315 318 320 316 315 314 312 315 318 317 320 321 318 316 316 317 319 320 324 328 327
306 308 309 311 312 311 313 313 310 308 309 310 311 313 314 315 316 318 319 318 318 319 319 320 321 321 321 320 319 317 315 316 317 317 319 317 314 317 319 316 315 314 314 313 312 314 317 318 319 320 321 324 325 320 316 316 316 316 318 319 317 318 320 321 323 323 321 319 318 317 317 315 311 312 317 318 318 319 318 315 316 320 322 324 325 327 328 328
304 306 308 309 309 309 312 313 311 310 310 310 310 311 313 315 315 317 318 318 318 319 319 320 319 317 320 322 321 319 317 316 316 317 319 318 314 319 324 322 316 314 314 316 315 313 314 317 318 319 320 322 325 323 318 316 316 318 322 321 318 320 320 320 320 317 317 323 321 317 317 315 312 315 319 320 320 318 317 317 318 320 322 323 324 326 326 328
303 304 305 306 307 309 311 312 312 311 310 311 311 311 312 314 315 316 317 318 319 320 319 319 319 320 321 321 321 320 318 318 320 318 319 319 317 320 325 322 318 316 320 324 319 313 316 319 318 317 316 316 319 319 319 320 319 320 325 323 318 319 319 317 319 317 317 321 321 317 315 313 312 315 317 319 319 318 318 319 318 318 319 320 322 325 323 322
303 304 304 304 307 309 310 311 312 312 311 312 312 312 312 313 315 316 316 317 319 319 319 319 319 320 320 319 320 321 318 319 320 319 320 321 321 322 321 319 318 319 322 324 319 317 324 322 315 313 314 313 314 316 319 323 322 320 322 322 317 317 317 317 319 319 317 317 318 316 315 314 313 314 315 317 317 317 317 317 317 318 321 321 321 323 320 318
302 303 304 304 307 309 309 311 313 312 312 313 313 313 313 313 315 316 315 316 318 318 318 319 319 319 319 319 319 321 320 319 319 320 322 322 322 320 317 316 319 320 319 319 316 318 324 321 315 314 315 314 317 322 322 319 319 319 319 321 319 317 317 317 318 318 316 316 317 316 315 315 314 314 316 316 316 318 319 317 317 318 320 321 320 318 317 318
302 302 303 303 306 308 309 310 311 312 312 313 313 313 314 313 315 316 316 316 317 317 318 318 318 319 319 318 319 320 320 320 319 321 322 321 321 319 317 317 317 317 319 320 319 322 323 320 318 316 314 317 322 325 323 318 318 319 317 318 319 317 316 317 317 317 316 317 317 314 316 317 313 313 316 317 317 319 319 317 317 317 317 317 318 318 318 320
301 301 302 301 302 305 307 309 310 311 312 312 312 313 314 314 314 315 315 316 316 316 317 317 317 317 318 318 319 319 319 319 320 320 320 320 319 318 320 321 317 316 322 323 321 322 321 320 321 319 315 318 321 322 321 318 318 320 318 317 317 317 316 316 315 315 315 316 316 315 318 318 314 314 318 319 320 320 316 316 316 316 315 315 316 319 321 321
300 301 303 303 303 304 305 308 310 311 311 311 312 313 313 313 314 314 315 316 316 316 316 316 316 316 317 317 318 318 318 318 320 319 319 320 318 316 319 323 319 316 321 322 319 319 318 317 321 321 318 319 319 320 321 320 319 320 320 320 318 316 315 315 315 315 315 316 315 315 318 317 314 317 319 318 319 319 317 317 318 315 315 315 317 320 321 320
299 300 301 303 305 304 304 307 309 310 311 311 311 312 312 312 313 313 314 314 315 315 316 316 316 316 317 317 317 317 317 317 318 318 317 318 318 316 317 322 322 318 319 320 319 322 321 318 319 321 320 320 320 319 320 320 320 320 321 322 319 316 316 316 315 316 315 316 316 316 317 316 314 318 319 316 317 320 319 317 316 315 316 316 316 317 317 316
298 299 300 301 303 303 304 306 308 309 310 310 309 310 311 311 312 313 313 313 314 315 315 315 315 316 317 317 317 317 318 318 317 315 314 315 318 317 316 319 320 318 319 320 318 320 322 320 320 321 321 320 319 319 319 319 321 320 319 319 317 316 318 318 316 317 316 315 316 317 316 314 315 318 319 317 317 319 318 315 315 317 318 316 315 315 314 313
Wind_Speed
11 11 11 9 9 8 7 6 6 5 6 6 5 6 8 10 11 12 12 13 12 10 9 8 7 6 5 4 3 2 1 2 4 5 5 5 8 7 6 8 7 6 7 6 5 5 3 1 2 1 2 2 1 0 1 2 2 4 3 3 2 3 2 4 6 6 3 4 6 5 5 8 4 1 1 2 6 4 4 5 3 5 7 3 0 13 28 30
11 11 11 10 9 8 7 6 5 5 7 6 6 7 8 10 10 11 12 11 11 10 8 8 7 6 5 4 3 2 1 2 3 3 7 7 7 7 7 8 7 7 7 6 5 4 3 1 2 3 3 1 1 1 1 1 2 3 3 3 3 5 3 4 5 5 3 4 7 5 5 6 6 4 2 2 1 2 5 3 4 5 6 6 8 21 28 28
11 11 11 10 9 8 7 6 6 5 7 7 7 8 8 9 9 10 10 10 10 9 8 8 7 6 5 4 2 2 2 3 2 3 8 9 6 6 7 8 7 7 6 5 5 4 3 1 1 3 4 2 1 2 2 1 1 2 4 3 5 6 3 3 4 4 5 5 8 5 4 3 4 5 2 4 4 3 4 3 1 1 2 3 7 17 25 25
11 11 11 10 9 8 7 7 6 5 6 8 8 8 8 8 8 8 9 9 9 8 8 7 7 6 5 4 2 2 3 4 1 3 8 10 7 7 8 7 6 5 6 6 5 4 3 1 1 3 4 1 2 3 2 1 1 2 4 4 6 4 2 3 2 2 3 4 8 5 4 2 4 4 3 6 6 3 6 7 8 9 9 9 7 13 21 21
11 11 11 10 9 9 8 8 6 5 6 8 8 8 8 8 8 8 8 9 9 8 8 7 7 6 5 3 2 3 3 3 2 3 7 10 8 8 7 6 5 5 6 6 5 4 2 0 3 4 4 1 1 3 2 3 2 2 0 5 5 5 3 3 3 3 1 5 5 6 6 4 3 2 4 9 7 6 7 8 11 11 13 15 13 15 17 17
11 10 10 10 10 9 9 8 6 5 5 7 7 7 8 8 8 7 8 8 9 8 8 8 7 6 5 3 3 4 4 2 2 3 7 9 9 8 7 5 4 4 5 6 5 3 2 2 4 3 2 2 2 2 3 2 2 3 2 2 2 4 3 2 1 3 1 7 6 6 4 3 5 0 3 8 8 7 7 9 10 9 16 19 17 16 14 14
11 10 9 10 11 10 10 8 6 5 5 5 6 6 7 8 7 7 7 8 8 8 8 8 7 6 5 5 4 2 2 2 2 5 8 9 9 7 6 5 5 5 6 6 4 3 4 4 3 4 4 2 3 3 2 1 5 5 2 1 0 2 3 1 1 2 3 7 5 4 2 3 6 2 1 5 8 8 7 3 4 10 17 18 15 14 15 16
11 9 9 11 12 11 10 8 6 6 5 5 5 6 7 7 7 7 7 8 8 8 8 8 8 7 6 6 5 3 1 3 5 8 9 10 9 7 7 5 5 5 6 5 3 3 4 3 3 4 4 2 5 3 2 4 5 4 4 2 1 1 0 1 2 4 4 3 1 4 3 3 5 3 0 6 9 8 5 3 5 11 14 14 13 14 13 15
11 9 9 11 13 13 10 8 7 6 5 5 6 7 7 7 7 7 7 8 8 9 8 8 8 8 9 6 5 3 3 4 7 9 10 11 8 7 7 6 7 6 5 4 3 4 3 3 3 4 4 3 4 4 3 4 1 3 5 4 3 0 1 1 3 3 2 1 2 4 1 5 3 1 3 8 9 5 2 6 6 10 11 11 12 13 14 13
11 9 10 11 13 14 12 8 7 7 5 5 6 7 7 8 8 7 7 8 8 8 7 8 8 9 10 5 5 3 3 4 8 10 11 10 9 8 7 6 7 5 4 4 4 5 4 4 4 4 5 2 3 3 2 4 3 3 6 5 5 1 1 1 1 0 1 1 1 4 3 6 4 2 4 8 4 5 6 5 5 9 10 12 10 12 15 15
11 10 11 11 11 13 13 10 8 7 6 6 6 6 6 8 8 7 7 8 8 8 8 8 8 9 9 4 5 4 2 5 9 10 11 10 9 8 7 7 6 4 4 4 5 5 4 5 5 4 2 1 3 2 1 3 4 6 8 5 5 5 2 1 3 2 1 1 2 6 1 5 5 1 7 6 1 6 8 6 6 7 8 10 10 10 12 15
12 11 11 10 11 12 13 11 9 8 7 7 6 5 6 8 8 7 7 7 7 8 8 8 9 10 7 3 3 4 2 6 10 10 10 9 8 7 6 6 5 4 4 3 5 5 4 4 5 5 1 3 4 2 1 2 5 5 7 5 5 8 3 2 1 2 1 2 3 5 1 4 2 7 8 2 2 5 7 7 7 7 7 7 8 7 8 14
12 12 10 10 10 11 11 11 10 8 7 7 5 5 6 8 8 8 7 7 7 8 8 9 10 10 6 1 3 3 4 8 10 10 10 8 7 7 6 6 5 3 2 2 4 6 4 3 5 6 3 5 3 1 3 3 4 3 4 5 2 7 4 5 1 0 2 2 2 4 1 6 7 12 7 4 2 4 6 8 7 7 6 6 7 6 8 12
13 12 10 9 9 10 10 10 10 9 7 6 5 5 6 7 7 7 7 8 8 9 9 9 11 9 3 1 2 3 7 10 11 10 10 9 8 7 6 5 4 3 2 2 5 6 4 3 6 6 3 4 3 2 4 5 3 2 2 3 3 2 3 7 2 3 4 1 3 6 2 6 9 11 9 7 3 7 7 8 7 7 6 6 6 7 8 10
13 11 10 9 9 10 10 10 10 8 7 6 5 5 6 6 7 7 8 9 9 10 10 9 11 7 2 1 2 5 9 9 11 11 10 10 8 6 5 6 5 5 4 5 6 5 3 4 6 5 1 2 5 5 4 4 3 3 2 2 3 2 4 8 2 5 6 1 4 7 2 6 8 10 8 6 2 7 7 7 7 7 7 7 6 7 8 10
13 11 10 10 10 11 11 10 10 9 7 6 5 5 6 7 7 9 10 10 10 11 9 7 9 6 3 1 1 5 6 6 10 11 10 10 8 6 7 8 6 6 6 6 6 5 4 5 4 2 3 3 5 6 4 4 4 4 3 2 2 2 2 5 2 2 3 1 2 2 3 4 4 6 7 5 3 4 5 7 7 7 8 8 7 7 8 9
12 11 10 11 11 12 11 11 10 9 7 6 5 6 8 8 9 9 10 11 11 10 7 4 6 4 2 2 2 3 4 6 11 11 10 9 8 9 9 6 4 6 6 5 5 3 4 5 1 1 3 4 3 6 5 1 3 3 2 1 3 3 2 2 3 3 2 2 1 0 2 6 6 7 9 6 3 2 4 7 8 7 7 7 7 7 8 9
11 11 10 11 13 12 12 11 10 8 7 7 7 9 10 10 11 10 11 13 11 8 4 1 3 2 2 2 3 4 5 8 11 10 10 8 8 8 5 3 4 6 6 5 3 2 3 4 2 1 4 3 2 5 4 4 5 5 3 2 2 2 3 3 3 2 2 1 2 1 3 9 11 10 10 9 2 2 7 8 7 8 8 8 7 8 8 9
11 11 11 12 13 13 11 11 9 7 8 8 10 12 12 11 10 8 9 10 7 4 2 2 4 3 3 4 3 4 8 11 10 8 8 8 7 6 4 4 5 6 5 3 2 1 2 3 4 3 2 2 5 6 6 7 8 9 6 5 4 3 4 4 4 4 1 2 3 5 6 8 10 10 10 11 5 4 8 8 7 8 8 8 8 8 9 9
12 12 12 13 15 13 11 11 9 8 8 11 15 14 9 7 6 3 2 2 3 3 3 5 5 3 1 1 4 9 11 8 5 5 7 6 7 6 4 4 6 6 4 4 2 0 4 4 2 5 7 7 7 7 6 5 6 7 6 5 4 4 2 4 3 4 1 3 5 5 5 8 10 11 11 10 6 4 8 9 10 10 9 9 9 10 11 11
13 13 12 13 16 14 12 12 9 9 9 14 16 8 4 5 4 3 2 2 4 1 2 4 4 3 1 4 9 11 8 4 2 2 6 5 6 7 1 3 5 4 1 4 3 2 5 5 6 7 9 8 6 6 6 6 5 6 6 5 2 2 2 3 2 4 2 2 4 3 4 10 10 11 11 8 7 7 10 11 11 12 10 8 9 12 12 10
15 14 12 14 16 14 13 11 9 9 9 13 12 3 2 4 4 6 6 2 3 1 3 3 4 3 2 6 10 6 4 4 1 1 4 4 3 4 2 4 6 4 1 3 4 4 4 2 9 8 6 5 4 5 7 6 5 5 4 5 2 2 2 3 4 5 3 1 4 5 6 10 10 10 12 10 9 9 9 10 10 11 9 9 10 11 11 10
15 14 13 14 15 14 12 10 9 9 11 12 9 3 3 3 5 8 6 4 2 1 2 2 3 3 3 3 7 3 4 4 4 4 5 5 2 3 5 5 5 5 3 4 6 5 2 5 8 5 6 7 5 4 7 6 4 4 4 4 2 2 1 2 4 4 3 1 2 4 6 9 7 6 10 9 7 7 7 8 9 9 9 12 11 10 10 12
16 15 15 15 14 12 10 8 7 9 12 12 8 5 6 6 6 8 3 4 2 1 1 1 2 4 3 3 6 5 3 3 5 5 7 7 4 3 5 5 5 5 3 6 8 7 4 6 3 5 5 7 7 4 6 6 2 1 3 5 3 3 3 2 2 2 3 4 3 4 6 7 5 4 6 6 3 5 5 5 8 9 10 11 11 11 11 10
17 16 15 15 14 12 11 8 5 8 11 10 7 7 7 7 5 6 3 3 1 1 2 2 1 4 6 5 5 6 3 1 1 3 6 7 6 4 3 3 4 5 5 7 8 5 5 5 3 7 5 6 7 4 5 7 3 2 2 6 7 6 5 2 2 4 4 4 4 5 4 6 5 4 7 6 6 6 4 3 8 10 9 9 10 11 10 7
17 16 16 16 13 12 10 5 5 9 9 7 7 8 7 5 5 6 4 4 1 2 1 3 2 5 8 5 4 4 3 1 1 1 4 5 3 3 3 1 2 4 6 6 4 3 2 1 4 7 5 6 6 3 4 6 6 1 4 6 7 7 7 4 2 3 1 3 3 4 3 5 7 5 8 5 6 8 7 7 11 9 7 7 8 9 7 6
17 17 17 15 13 14 9 3 8 11 6 5 9 10 6 3 5 4 5 5 3 2 5 2 1 6 8 4 5 6 3 4 2 3 2 3 1 3 4 4 2 2 4 4 2 2 3 3 5 6 6 6 5 2 4 7 8 3 4 7 8 7 7 5 5 3 2 3 4 4 4 2 6 5 5 2 3 9 10 11 11 8 7 8 8 8 7 7
16 17 17 15 15 14 7 5 12 9 1 5 11 11 7 5 5 3 5 3 3 2 4 2 1 6 5 2 4 5 2 3 5 2 1 3 1 3 3 6 6 5 2 5 4 4 2 4 5 6 6 4 4 4 5 7 6 4 4 7 6 7 7 5 6 3 1 2 4 5 2 2 7 6 2 2 3 8 9 10 11 9 8 8 7 8 8 8
17 17 17 16 15 12 6 6 11 6 1 6 12 11 9 6 4 4 4 2 2 1 1 2 3 3 2 3 4 3 1 2 2 3 1 3 0 3 3 5 6 7 3 4 6 3 1 4 7 7 6 4 4 2 3 5 3 3 6 7 5 6 6 5 5 3 3 2 4 6 3 2 6 7 4 3 2 6 8 8 8 8 8 6 6 7 7 6
19 17 16 17 15 13 8 4 7 6 3 6 13 13 10 4 3 5 3 4 2 1 0 2 3 3 6 7 2 1 2 2 1 1 2 1 2 4 2 2 6 7 5 6 4 1 2 1 2 4 3 6 4 2 1 3 5 6 7 7 6 6 5 4 3 4 2 3 6 7 4 2 4 7 4 2 3 5 4 6 7 7 7 5 4 5 6 5
17 17 18 19 16 14 8 4 7 8 3 8 15 13 7 3 3 5 5 4 2 2 1 2 1 4 11 11 4 1 3 3 0 5 3 1 2 3 2 2 4 5 3 4 3 4 4 3 1 1 1 4 6 5 4 4 4 6 5 5 4 4 4 4 4 3 1 5 6 5 2 4 4 7 4 4 6 5 3 4 5 4 6 6 5 5 6 5
13 17 21 20 17 14 8 5 8 7 5 12 14 8 4 4 1 5 4 1 2 3 4 4 3 6 10 9 5 4 4 2 1 5 5 4 3 3 4 4 4 3 1 3 1 2 2 1 2 2 1 4 6 5 4 6 5 6 5 6 4 2 3 2 3 0 3 6 4 2 1 3 6 7 7 9 9 7 7 7 5 1 2 5 6 6 5 5
9 13 19 20 17 16 10 6 7 6 8 14 9 4 5 4 6 7 4 2 2 3 4 4 3 6 10 8 5 5 3 2 3 3 3 4 4 5 3 3 5 5 3 4 4 2 1 4 3 1 1 2 6 6 3 0 1 4 5 6 4 3 1 3 4 2 4 4 3 2 1 3 4 4 10 13 7 5 7 6 5 4 4 6 6 6 5 5
7 9 14 16 15 15 13 8 7 8 10 10 5 4 5 5 7 6 5 4 1 2 2 4 7 8 8 5 5 5 3 1 5 5 3 4 5 6 5 4 3 5 4 4 4 5 4 4 4 4 2 4 6 5 6 7 4 3 4 6 5 5 5 4 4 3 4 3 3 3 1 3 2 2 7 10 5 2 4 6 6 6 6 6 5 6 6 6
6 8 10 11 11 13 14 12 9 9 9 6 4 6 8 8 6 4 6 4 1 3 3 4 9 9 5 1 1 5 3 2 4 4 4 5 6 7 6 5 6 4 5 5 3 2 4 5 5 2 1 7 7 3 4 7 2 2 2 5 3 5 5 2 3 5 3 1 2 2 3 4 4 5 8 7 6 4 4 5 5 6 8 6 5 6 6 6
5 6 7 7 9 12 15 14 10 7 6 5 5 7 8 6 4 4 5 4 4 6 7 5 5 6 6 2 2 6 2 3 4 4 3 4 3 6 6 5 7 7 6 6 3 2 3 3 5 2 2 3 5 3 3 4 3 2 2 3 5 4 7 4 2 0 3 2 4 2 4 5 4 7 8 5 7 7 4 5 5 6 4 1 4 6 6 6
4 4 4 5 7 11 14 12 8 6 4 4 7 9 4 2 3 3 2 3 5 8 9 5 2 5 6 4 4 7 2 2 4 3 3 3 2 6 7 4 6 10 8 5 3 4 5 1 4 1 1 3 0 4 3 2 4 5 3 6 3 2 4 4 1 3 3 3 5 1 5 5 2 5 5 3 5 8 7 6 6 4 2 3 3 6 5 6
3 3 1 3 5 8 12 10 7 6 4 3 9 8 2 1 2 2 1 2 6 7 7 5 3 4 6 6 5 7 6 4 5 4 4 4 4 6 9 4 4 10 10 4 2 3 5 2 5 1 3 4 4 4 1 3 3 5 4 4 4 2 1 2 2 2 1 3 5 4 4 4 5 6 3 0 7 8 5 6 7 7 4 2 1 3 3 3
2 2 1 4 6 6 10 11 7 5 3 5 10 8 1 1 1 2 2 1 3 5 5 5 3 3 5 7 6 7 7 6 8 6 4 4 5 5 10 7 4 9 10 6 4 3 4 3 3 1 1 2 3 2 5 1 3 3 1 2 3 2 4 3 3 3 3 3 3 4 4 3 6 7 6 7 8 8 5 2 3 5 5 3 3 5 5 4
1 2 1 6 9 8 12 11 5 3 3 5 6 3 0 1 1 3 2 1 2 2 4 4 3 4 5 5 5 6 6 5 8 7 4 6 5 5 8 8 5 7 9 7 5 2 3 3 4 2 2 1 2 4 7 8 5 3 3 4 2 1 2 2 1 3 4 4 3 3 5 6 5 4 8 10 9 8 7 5 4 6 6 4 4 6 5 5
1 1 1 8 13 14 13 9 3 2 2 2 1 1 1 1 1 1 1 2 2 1 2 3 4 5 5 5 4 5 5 4 7 6 3 6 6 4 6 8 7 7 6 5 5 4 2 3 4 2 1 4 5 5 6 9 8 7 7 8 7 5 4 3 3 2 2 3 4 3 5 8 5 4 6 8 7 6 6 6 4 3 2 2 4 4 4 4
1 2 1 9 19 18 10 3 1 3 1 2 1 1 1 0 1 1 0 3 3 1 2 3 2 3 4 5 5 5 6 5 5 6 4 6 8 5 5 6 9 10 8 6 6 5 3 4 4 3 3 6 7 5 4 6 3 1 3 5 6 6 5 6 6 4 1 2 2 4 3 7 3 4 5 6 5 4 5 4 2 2 2 2 2 3 3 4
2 1 2 9 20 16 6 2 2 3 2 2 1 1 0 0 0 2 1 1 1 1 2 1 0 2 1 2 4 6 7 5 6 7 4 4 6 4 3 4 8 10 8 5 5 3 2 4 4 1 3 4 5 5 2 0 0 1 2 2 4 4 4 5 5 4 3 4 3 3 5 6 1 1 2 3 4 4 3 2 4 5 5 5 5 6 6 7
2 1 2 6 14 8 3 4 3 3 3 3 4 3 2 1 2 3 3 2 2 2 2 1 0 1 1 2 4 5 5 4 6 7 4 3 4 2 2 2 7 9 6 4 5 5 4 3 4 3 1 3 4 4 2 1 2 3 3 3 5 5 5 4 2 3 2 7 7 5 7 6 2 3 2 5 5 5 3 2 3 5 5 6 7 7 7 8
1 1 1 2 6 3 2 3 3 3 5 5 6 6 4 2 3 4 3 3 3 3 3 2 1 2 2 3 4 2 1 1 4 4 2 3 3 2 4 2 5 8 4 3 5 7 6 5 5 6 6 7 6 6 5 4 3 2 3 6 8 8 9 6 2 3 5 7 7 7 9 6 1 1 3 4 5 5 3 4 2 4 3 4 5 6 7 7
1 1 0 0 1 1 1 0 2 4 5 6 5 5 8 5 3 3 4 3 3 3 2 1 2 3 2 2 3 2 1 1 2 2 2 2 2 2 3 3 1 4 1 1 4 6 4 3 7 10 11 11 10 8 5 7 7 6 7 9 10 9 11 8 4 5 9 6 4 8 12 10 6 4 4 2 3 4 2 1 2 4 4 4 5 6 5 6
1 1 3 2 0 2 2 1 3 3 4 7 4 4 10 9 3 2 3 3 4 4 2 1 2 3 3 4 3 3 3 1 1 2 3 3 2 3 3 3 3 2 2 2 1 4 5 3 8 12 13 11 8 7 7 10 12 13 12 11 11 11 11 11 9 11 10 4 6 13 10 11 15 9 7 9 4 5 4 4 2 4 5 6 7 6 6 6
0 0 1 1 0 3 3 4 7 5 4 7 5 4 8 10 7 5 4 2 2 4 3 1 4 8 7 7 4 3 4 3 1 3 3 3 2 1 2 2 2 4 3 2 1 3 5 5 6 8 10 7 3 3 8 11 10 11 13 14 14 14 14 15 17 17 12 8 14 17 10 13 20 10 9 11 6 6 7 6 5 6 5 5 7 7 7 8
0 1 2 2 1 2 2 2 8 7 5 6 6 5 8 12 12 8 4 3 2 4 5 5 8 10 8 7 6 4 6 5 5 6 5 3 3 2 1 1 2 2 3 3 1 1 4 4 2 4 6 5 3 3 6 9 8 7 10 12 14 16 18 20 20 20 14 12 17 13 7 12 15 6 8 9 6 6 6 4 4 4 2 3 6 7 8 8
1 0 1 2 2 1 2 2 7 7 5 5 5 5 7 11 14 10 6 7 6 5 7 10 10 9 9 9 7 7 8 7 6 6 6 5 3 3 3 3 2 1 3 3 1 1 2 3 1 3 3 4 4 4 5 6 7 5 6 8 11 13 15 16 14 11 8 11 16 10 6 12 9 5 7 8 5 5 5 4 6 2 2 4 7 6 6 7
2 2 2 1 2 1 0 1 5 6 5 6 6 6 7 10 12 10 5 7 9 7 9 13 10 6 6 8 8 9 9 8 8 7 7 7 6 4 3 3 3 3 1 1 1 2 2 2 2 3 3 4 4 6 4 4 4 2 7 10 11 9 9 9 8 7 8 11 13 9 10 13 5 5 4 4 5 6 8 5 4 3 2 5 5 5 6 6
5 2 3 2 1 1 2 1 3 5 5 8 9 8 7 6 7 8 5 5 8 9 11 13 11 6 4 8 12 12 7 5 5 4 5 7 6 5 4 3 3 4 2 1 1 1 3 4 2 2 4 3 3 6 6 5 2 5 11 12 10 8 6 5 5 8 10 10 8 8 11 11 3 2 5 4 5 6 7 2 3 0 4 4 4 5 6 6
Wind_Direction
197 196 184 178 177 179 177 167 165 161 165 170 174 178 177 182 185 186 191 195 199 202 199 201 208 212 210 216 240 271 274 189 163 177 188 195 196 204 218 213 215 205 192 184 186 195 205 244 238 200 142 142 35 139 22 7 71 58 91 105 152 187 208 180 180 199 178 170 190 208 169 137 162 237 140 54 56 75 63 34 2 3 18 16 178 151 156 162
194 189 184 181 179 181 179 174 167 168 174 171 179 185 186 190 189 190 194 197 201 202 198 198 204 207 211 218 241 281 258 167 142 211 214 189 190 215 220 203 195 190 184 181 191 179 142 237 332 68 93 96 338 25 30 331 91 92 119 112 199 206 201 195 195 204 195 171 171 184 174 154 175 177 131 137 159 106 96 16 2 26 19 39 111 141 152 161
198 188 183 186 182 181 184 181 170 177 187 184 183 187 196 198 192 193 197 201 203 202 200 199 199 204 212 216 247 280 172 130 112 255 218 198 202 214 202 189 185 182 182 181 186 174 162 238 346 90 77 68 321 52 82 22 125 161 118 109 227 216 203 225 200 207 245 186 154 170 178 170 192 169 141 165 170 162 165 189 119 128 209 139 137 147 155 163
204 194 191 191 185 186 185 180 178 181 192 195 193 192 200 199 195 198 199 203 205 203 201 198 196 200 210 216 238 209 135 100 220 233 201 204 210 200 188 184 180 178 189 188 181 194 230 277 95 112 86 74 326 44 144 248 202 153 111 164 217 182 156 259 229 263 284 157 152 150 136 200 220 166 152 146 142 243 236 210 193 191 182 168 173 164 162 168
203 200 202 199 188 189 184 181 186 185 194 200 200 202 201 197 197 200 201 205 206 204 201 196 193 195 204 212 203 191 130 92 243 202 183 198 197 189 183 177 179 186 193 190 190 198 229 105 87 83 78 123 5 49 214 239 143 88 26 194 187 140 145 267 268 300 357 102 115 127 143 197 173 137 161 149 160 227 229 214 207 186 170 171 174 172 170 173
198 201 208 205 191 188 186 186 192 190 193 194 198 207 202 197 196 198 204 205 205 206 202 194 188 189 195 194 188 184 148 147 233 157 174 183 181 182 172 173 185 194 194 185 195 174 141 79 83 108 85 104 149 157 216 256 99 102 280 238 183 164 156 221 271 317 119 118 130 154 177 160 119 247 182 163 198 226 222 210 208 183 169 170 165 167 173 179
196 201 206 199 187 186 190 190 196 196 190 184 191 203 201 198 195 198 203 204 208 206 200 194 185 186 181 168 168 142 126 228 221 157 168 170 173 176 163 178 189 198 195 179 181 143 124 91 103 147 102 89 172 185 198 36 54 101 172 282 46 142 135 179 149 38 88 128 170 167 125 138 156 207 129 191 232 242 257 244 179 162 159 160 158 172 183 186
194 198 197 192 186 184 190 196 200 197 190 186 187 188 194 199 198 198 199 204 209 202 198 190 185 180 169 163 147 71 350 234 188 164 167 163 167 168 164 180 182 191 189 179 180 155 142 118 156 158 110 196 181 165 142 76 37 94 157 214 80 59 146 325 79 63 61 103 114 107 122 214 192 184 146 235 243 245 260 30 96 136 145 157 169 182 188 192
192 194 192 191 190 187 190 195 197 197 196 193 188 181 186 200 203 199 198 205 206 202 195 184 185 174 167 163 114 105 239 200 168 166 166 162 163 164 169 176 175 184 181 191 202 162 158 158 198 182 159 215 162 150 147 111 250 180 145 164 135 89 264 61 75 65 59 22 39 110 217 298 258 256 276 245 237 223 141 79 106 133 145 173 179 186 190 196
192 194 194 197 199 201 205 201 191 199 208 202 197 188 188 201 204 200 198 203 204 200 188 181 183 168 170 159 99 155 232 172 166 167 163 161 160 166 174 177 174 182 179 180 181 158 160 182 189 153 144 155 116 129 137 138 190 154 121 120 104 100 280 67 112 178 87 9 30 151 236 306 328 343 265 262 243 148 124 119 151 147 163 185 186 193 195 198
192 194 199 204 207 212 222 221 199 201 217 207 199 196 199 205 202 200 199 200 201 194 182 179 175 168 173 145 123 192 230 165 171 166 162 160 158 171 177 178 174 175 172 154 171 169 158 180 157 120 138 136 106 62 33 139 129 124 119 89 22 6 343 54 119 201 112 66 146 134 162 313 359 330 237 267 276 150 155 163 180 176 184 191 191 199 199 207
193 197 201 207 211 217 226 225 208 205 216 203 194 208 211 205 199 197 197 195 196 188 177 173 170 168 155 105 156 202 181 165 172 165 165 162 160 173 171 173 179 173 168 151 184 182 160 182 130 109 193 142 116 82 138 117 101 119 107 92 346 4 359 266 148 226 169 145 191 127 35 301 259 230 236 314 51 161 169 179 196 203 205 200 200 204 206 218
195 199 203 208 213 216 214 209 204 205 207 198 200 222 214 201 197 195 189 186 187 179 171 166 169 167 141 105 208 192 173 171 170 165 163 160 157 167 169 173 178 172 171 157 184 172 161 199 130 124 138 113 125 182 125 69 85 122 81 96 18 15 341 279 315 216 157 150 191 125 265 273 247 241 253 337 8 144 172 201 209 214 218 213 210 213 219 225
196 199 204 209 205 199 197 196 198 200 200 205 214 222 208 194 190 185 177 177 175 168 166 163 167 166 138 194 216 180 179 172 168 165 158 158 150 149 160 164 164 170 170 147 157 152 147 157 115 108 101 101 134 116 60 26 48 104 83 70 60 91 274 296 323 140 151 196 78 104 193 263 272 271 279 299 247 166 191 216 216 224 231 230 224 223 231 230
197 201 204 210 198 188 192 193 192 195 198 205 217 216 194 178 176 172 166 167 163 161 162 160 165 157 101 291 224 165 171 168 168 167 161 159 150 144 151 151 148 145 145 142 141 131 123 130 98 85 78 34 75 85 47 9 19 50 108 320 353 151 259 306 296 159 158 248 57 97 204 268 279 278 284 302 192 171 205 224 224 229 232 235 237 230 235 240
199 204 208 212 201 189 189 190 188 192 198 204 209 190 162 156 160 158 159 156 152 156 150 156 174 155 111 210 146 150 168 174 172 169 165 164 161 152 143 140 135 131 136 133 129 117 88 87 67 93 124 61 77 95 63 30 353 0 103 197 266 161 264 310 295 225 169 182 15 96 207 266 282 270 284 327 72 147 214 241 244 236 235 233 231 232 234 243
199 208 215 210 197 187 186 188 186 187 191 189 169 148 141 145 147 146 148 144 142 145 127 142 182 158 93 115 125 172 188 179 174 169 164 165 164 154 141 130 120 122 118 104 112 99 51 49 40 179 75 69 102 98 80 50 270 293 54 173 229 173 188 277 277 297 57 131 259 115 207 248 265 275 289 315 50 113 230 246 251 245 247 244 236 240 238 239
200 206 208 199 186 183 184 182 180 179 172 160 143 135 133 129 128 130 135 133 124 113 85 77 150 157 244 194 172 184 171 165 168 164 161 160 159 153 141 118 114 106 83 59 61 57 32 26 56 87 38 53 124 102 122 205 198 190 184 168 225 203 196 238 241 255 42 87 226 182 236 257 265 278 288 291 295 215 245 246 249 249 248 251 250 247 244 243
200 202 202 193 181 182 181 173 173 176 161 148 140 132 122 112 108 114 129 133 121 110 164 194 148 161 217 207 178 127 136 151 155 158 159 154 155 147 111 96 94 90 90 73 27 28 72 53 64 111 148 175 181 158 168 198 174 168 175 149 158 186 223 241 247 259 167 128 243 224 231 256 266 275 278 279 269 217 254 265 260 258 251 250 252 249 249 247
199 199 199 189 179 181 178 171 174 175 160 150 147 134 123 119 98 94 140 171 185 170 193 196 164 148 145 153 132 119 122 129 138 160 160 157 154 137 85 51 47 53 95 140 149 53 87 107 162 186 193 193 191 178 154 154 141 134 126 112 147 170 232 254 257 288 174 143 258 241 243 261 264 268 265 271 286 249 251 258 255 253 250 247 245 249 249 244
190 191 197 188 180 180 176 173 174 171 164 161 159 148 155 161 126 156 201 271 253 219 147 172 137 111 78 125 141 136 119 88 54 152 162 169 147 140 103 30 71 64 85 155 139 24 66 132 210 219 205 191 181 166 124 105 89 93 122 120 121 174 224 255 249 296 353 135 270 328 312 270 257 263 264 263 272 257 238 236 245 247 247 249 247 250 250 251
183 192 196 184 177 176 173 171 170 174 171 170 175 190 207 173 130 148 146 152 247 7 80 128 88 53 57 134 157 145 83 83 88 238 189 167 119 153 156 67 115 145 161 112 89 33 48 190 233 231 196 139 110 132 112 98 90 81 109 124 139 217 244 293 304 313 5 106 272 344 333 279 262 256 259 251 241 248 239 226 237 245 249 251 245 247 251 257
185 188 180 172 170 170 172 168 169 180 179 176 186 189 149 129 129 143 119 104 185 1 63 138 114 103 73 143 185 156 88 132 166 225 206 158 132 170 137 104 128 136 121 129 126 119 119 244 241 210 148 113 90 118 113 93 81 89 108 130 205 255 179 276 301 313 352 59 269 326 311 282 283 272 266 261 243 255 259 240 239 239 239 243 243 243 243 245
180 174 167 164 163 162 161 157 166 186 186 184 191 175 125 101 138 160 107 75 159 234 266 213 142 153 151 160 184 159 123 147 162 191 190 159 146 149 146 141 130 126 155 155 140 147 202 250 215 103 98 117 115 121 130 125 76 34 135 142 181 215 170 194 291 324 354 15 10 358 325 291 313 334 292 289 290 270 269 269 263 249 238 245 254 252 243 241
168 165 164 161 158 156 153 155 181 188 183 189 199 173 128 91 125 160 105 67 174 316 314 230 150 182 177 143 164 168 136 108 175 193 182 164 148 136 165 155 124 159 181 143 130 155 229 257 141 108 71 89 115 138 164 151 134 308 217 172 171 167 158 169 0 34 32 349 339 27 4 292 308 320 275 296 334 299 289 295 266 253 247 247 254 258 256 256
165 164 163 160 155 155 155 169 192 170 166 197 203 173 146 95 114 148 98 54 272 277 167 179 156 177 175 149 161 148 111 214 296 82 146 160 163 117 140 148 88 170 173 138 131 167 224 347 91 124 112 88 99 135 190 143 116 237 231 170 150 129 123 129 84 63 83 258 303 55 102 268 296 284 258 283 335 305 293 283 266 260 263 254 250 258 265 265
167 167 163 162 162 159 158 161 162 155 155 211 203 185 180 127 125 145 78 47 281 206 145 184 317 165 170 173 157 134 162 210 106 68 111 139 226 53 117 181 133 150 166 124 126 217 171 85 68 94 96 95 111 156 199 134 115 229 226 133 128 121 127 135 109 99 209 245 324 15 113 236 288 267 244 260 320 300 290 282 282 278 268 260 256 260 258 248
172 174 168 168 172 166 152 135 154 159 161 190 186 187 186 152 139 121 84 93 248 143 138 218 133 146 153 117 110 115 200 187 122 184 331 86 165 43 99 194 167 143 133 121 172 251 160 148 160 125 94 119 175 213 203 125 103 239 194 126 130 129 132 124 101 99 4 4 317 310 131 196 275 268 281 359 306 291 287 283 291 294 283 275 268 265 256 246
178 184 177 172 176 171 153 142 159 166 112 163 171 174 171 159 137 86 88 166 212 87 126 154 132 142 129 93 71 63 49 52 120 214 353 81 128 44 122 193 148 120 57 98 165 234 92 182 188 136 121 184 198 239 203 127 102 187 135 99 74 74 82 80 92 104 42 5 254 242 190 191 271 279 304 354 280 261 274 285 289 295 297 290 275 269 267 270
184 194 184 176 182 186 184 180 176 165 130 163 167 162 157 148 110 109 162 213 159 91 63 142 166 164 140 134 75 20 101 49 55 100 40 63 19 26 112 145 98 100 33 40 105 244 321 257 189 115 147 186 152 94 116 126 125 125 97 70 51 32 33 44 55 82 66 291 254 236 212 171 269 281 267 222 221 226 260 296 302 319 339 344 326 295 288 305
181 191 183 181 189 189 181 188 183 172 167 169 161 154 140 74 77 145 198 216 128 100 110 140 190 148 152 156 150 129 98 45 159 137 127 156 51 43 116 111 71 77 41 37 44 325 353 32 305 295 160 133 99 69 32 24 78 96 84 81 69 356 6 18 0 41 145 256 262 256 215 147 219 262 258 237 250 242 225 257 281 333 3 352 329 299 289 304
164 183 187 191 196 190 179 174 176 175 175 162 152 138 106 82 177 197 208 207 156 182 172 172 198 166 160 152 136 150 124 79 187 151 146 150 152 173 171 171 151 108 172 182 116 338 16 43 283 308 218 134 103 76 30 6 32 77 93 97 90 342 4 345 300 263 225 246 267 271 188 181 227 247 259 262 263 244 218 216 218 182 349 304 294 292 301 311
136 170 187 192 192 193 190 167 166 174 165 157 144 79 80 128 208 209 202 219 194 173 150 138 135 148 151 142 150 160 110 126 186 159 150 139 160 207 231 198 153 126 183 182 128 129 273 307 304 63 289 187 133 127 130 176 116 130 139 132 131 131 122 257 263 273 260 259 283 288 246 258 273 264 250 251 253 227 218 227 234 224 243 266 274 285 302 309
116 138 172 181 180 187 186 171 170 171 160 153 132 100 124 187 213 182 177 214 189 85 103 123 115 129 148 148 181 175 99 140 180 140 139 136 150 204 231 233 170 104 112 150 152 167 182 273 233 171 209 193 170 172 158 150 159 178 154 135 152 159 163 209 216 210 245 274 299 292 246 207 226 293 259 251 262 246 236 265 282 275 263 262 282 301 310 309
117 126 151 167 173 176 170 168 167 159 159 149 119 148 179 206 215 171 175 196 154 68 53 103 119 134 164 95 235 200 143 155 181 134 155 170 172 193 196 204 195 134 127 160 198 165 162 247 253 244 179 165 175 205 132 116 121 232 119 107 176 188 149 142 194 179 179 296 296 259 233 214 213 275 279 272 279 261 230 255 263 264 270 283 312 313 305 300
116 123 138 162 181 175 164 166 164 149 155 137 138 185 202 204 197 184 178 159 145 132 108 94 106 138 174 154 213 222 163 119 158 146 183 198 197 198 192 202 195 175 159 159 175 165 148 266 285 350 13 162 169 178 135 131 171 174 140 182 218 178 118 112 243 3 78 252 266 207 246 292 328 287 285 291 292 295 283 268 248 233 237 274 302 293 290 290
107 120 135 160 187 184 177 184 183 157 137 136 178 200 201 180 176 175 180 138 141 139 128 138 163 152 170 170 193 207 177 111 156 164 191 200 224 200 193 227 200 184 188 162 167 196 156 228 298 85 174 271 218 124 75 36 134 131 183 211 196 88 84 108 204 349 40 248 274 240 237 281 303 273 313 4 261 270 278 288 297 299 84 115 240 253 250 259
83 94 118 185 194 189 183 184 173 140 96 142 203 213 175 130 173 140 135 140 138 138 141 164 169 147 171 179 187 189 175 162 175 179 180 191 243 200 174 204 206 192 204 170 137 214 152 167 304 24 171 290 1 102 104 347 92 134 189 183 117 127 205 106 157 201 163 239 279 286 261 255 212 227 313 125 207 215 242 291 310 311 331 44 301 290 279 272
99 86 351 195 182 186 176 163 138 111 100 182 204 219 179 130 226 190 158 104 99 129 159 184 165 133 174 174 165 176 182 180 173 180 185 184 238 216 174 184 199 194 201 170 156 202 143 166 261 310 204 312 17 142 195 221 57 69 96 115 97 142 169 161 163 165 169 207 261 304 308 267 224 204 177 193 207 191 186 284 291 256 242 233 332 341 338 340
103 82 301 178 169 178 169 151 121 111 167 195 200 219 175 108 261 235 200 104 64 127 171 191 168 147 167 171 159 171 182 175 168 183 205 186 211 240 196 187 181 182 184 167 168 167 119 173 214 297 335 156 192 213 188 172 160 144 159 173 176 94 117 166 182 129 141 172 202 271 286 268 248 201 169 185 214 202 159 136 169 199 210 232 306 326 324 325
46 91 207 173 169 170 159 143 123 150 181 233 189 187 242 215 96 265 280 97 103 140 151 153 163 155 153 161 174 177 164 160 173 183 209 200 201 231 214 189 163 149 143 152 189 189 159 170 165 160 223 200 229 244 193 186 183 169 181 193 184 161 130 154 234 248 134 166 181 192 270 270 235 195 184 186 207 205 160 152 180 199 212 272 310 302 272 276
88 135 227 184 173 163 150 142 110 124 182 250 188 148 200 166 91 153 2 63 80 72 93 105 139 151 153 164 171 166 153 158 184 185 202 212 201 210 223 189 157 147 144 164 199 188 126 110 131 169 213 216 240 261 215 213 224 167 197 194 176 168 148 157 207 235 192 213 177 132 271 277 224 188 204 185 176 177 174 174 136 51 43 51 4 316 290 293
150 176 317 186 173 157 138 180 152 132 207 226 203 313 350 122 217 193 168 97 98 87 73 68 128 127 152 158 150 163 168 171 187 193 205 217 210 222 230 175 154 150 153 169 186 174 115 109 136 202 308 308 305 321 345 37 12 261 252 171 157 181 161 153 183 179 173 212 172 126 255 269 325 302 255 139 128 118 119 125 83 52 26 38 30 3 357 348
170 245 345 170 171 160 150 183 170 172 192 165 171 227 271 269 232 201 169 163 155 117 118 173 178 116 135 97 114 161 183 183 191 200 200 193 217 267 42 152 171 161 166 187 179 179 195 171 134 127 335 331 329 318 299 260 183 199 226 191 174 163 121 99 135 136 206 222 180 176 242 250 293 314 40 68 81 87 52 338 64 56 34 29 15 356 347 334
136 225 341 157 171 182 197 178 148 165 173 160 171 194 203 232 248 221 182 151 150 146 149 171 112 104 117 82 71 91 109 135 175 191 183 194 242 344 22 336 198 179 198 229 177 171 184 184 155 160 196 211 214 219 216 199 171 191 218 199 191 176 160 165 164 155 223 223 174 192 236 241 308 39 87 53 54 60 357 321 31 50 42 23 350 321 311 314
97 167 228 80 156 202 239 130 130 162 179 173 174 181 182 195 256 231 190 176 172 157 142 147 116 101 101 95 92 101 45 31 112 138 152 202 252 304 334 347 132 175 201 76 154 150 141 189 192 191 207 213 212 216 189 146 157 203 214 191 193 196 183 176 153 183 217 214 178 227 238 241 248 195 181 246 119 112 278 283 58 353 326 312 285 276 301 319
84 173 178 158 178 205 212 197 174 182 181 175 176 177 182 192 207 184 195 207 184 164 153 131 152 167 179 156 142 168 174 110 75 134 170 192 227 297 317 37 51 2 11 58 159 124 119 206 209 202 218 221 208 206 182 162 179 202 202 188 193 196 184 185 201 213 211 187 232 240 224 237 249 218 201 242 198 149 234 222 207 275 276 278 283 297 324 312
212 20 201 175 142 200 208 197 186 188 181 178 184 174 179 190 190 182 196 200 168 171 176 203 210 207 193 163 156 176 164 149 177 195 185 179 174 340 352 40 358 333 30 68 342 103 141 208 209 196 221 227 181 167 180 182 191 202 200 195 195 193 188 196 213 220 202 183 236 240 195 219 249 222 188 229 208 173 225 228 231 256 260 273 293 305 300 284
204 326 295 335 23 233 268 160 166 181 190 184 189 184 181 191 197 195 173 142 166 197 186 203 220 218 208 176 166 182 178 177 205 205 184 166 160 141 123 215 274 329 64 82 10 97 158 206 196 171 204 211 175 151 167 175 184 204 209 203 198 199 199 202 214 222 211 209 239 245 194 227 249 202 179 222 213 206 238 248 254 267 278 256 252 261 271 275
141 221 270 2 18 325 347 107 162 185 199 191 205 209 193 196 200 197 172 166 183 186 189 208 213 204 205 199 191 205 202 196 215 205 163 161 190 178 184 202 190 55 54 99 123 347 159 182 120 115 171 218 202 150 128 146 169 199 230 224 210 209 212 216 223 223 212 227 244 253 254 255 247 164 194 227 215 241 268 271 270 281 128 215 238 252 275 289
187 49 103 72 0 248 264 115 163 182 196 197 207 206 206 211 202 189 186 195 191 174 184 205 204 185 197 203 204 219 218 208 216 206 174 186 203 182 191 205 147 121 23 84 109 28 100 136 61 88 167 228 204 161 135 95 99 220 254 239 216 204 210 221 225 211 199 222 241 245 252 258 240 152 218 212 168 234 267 278 315 8 171 237 276 302 301 300
196 33 82 105 11 218 195 127 163 188 204 209 210 202 203 211 184 170 188 219 203 189 189 196 190 172 189 206 211 218 208 177 194 206 191 199 192 157 185 227 161 149 159 111 68 35 115 129 102 129 177 212 166 145 132 94 80 257 249 229 204 193 193 196 218 224 208 208 226 231 240 257 257 152 254 252 195 242 281 342 70 69 258 293 342 334 315 314